| time (UTC) | temp F | wind direction | speed MPH | gust MPH | rain 1hr in | rain 24hr in | rain mn in | humidity % | barometer mb |
| 20260509033521 | 63 | 267 | 2.0 | 4.0 | 0.01 | 0.68 | 0.15 | 84 | 1004.8 |
| 20260509032521 | 64 | 319 | 2.0 | 6.0 | 0.00 | 0.67 | 0.14 | 83 | 1005.2 |
| 20260509031518 | 64 | 268 | 1.0 | 4.0 | 0.00 | 0.67 | 0.14 | 83 | 1005.1 |
| 20260509030519 | 64 | 242 | 3.0 | 8.0 | 0.00 | 0.67 | 0.14 | 82 | 1005.2 |
| 20260509025518 | 65 | 270 | 3.0 | 8.0 | 0.00 | 0.67 | 0.14 | 81 | 1005.1 |
| 20260509024519 | 65 | 247 | 3.0 | 8.0 | 0.00 | 0.67 | 0.14 | 80 | 1004.9 |
| 20260509023522 | 66 | 285 | 3.0 | 9.0 | 0.00 | 0.67 | 0.14 | 79 | 1005.0 |
| 20260509022542 | 66 | 245 | 2.0 | 8.0 | 0.00 | 0.67 | 0.14 | 80 | 1005.0 |
| 20260509021518 | 66 | 262 | 3.0 | 7.0 | 0.00 | 0.67 | 0.14 | 80 | 1005.0 |
| 20260509020520 | 66 | 240 | 2.0 | 5.0 | 0.00 | 0.67 | 0.14 | 78 | 1005.1 |
| 20260509015519 | 66 | 283 | 2.0 | 6.0 | 0.00 | 0.67 | 0.14 | 78 | 1005.0 |
| 20260509014538 | 66 | 271 | 3.0 | 6.0 | 0.00 | 0.67 | 0.14 | 78 | 1004.9 |
| 20260509013518 | 66 | 253 | 2.0 | 6.0 | 0.00 | 0.67 | 0.14 | 79 | 1004.9 |
| 20260509012517 | 66 | 293 | 2.0 | 6.0 | 0.00 | 0.67 | 0.14 | 79 | 1005.1 |
| 20260509011516 | 65 | 247 | 3.0 | 8.0 | 0.00 | 0.67 | 0.14 | 80 | 1005.2 |
| 20260509010520 | 64 | 303 | 2.0 | 6.0 | 0.05 | 0.67 | 0.14 | 84 | 1005.4 |
| 20260509005518 | 63 | 240 | 2.0 | 7.0 | 0.05 | 0.67 | 0.14 | 86 | 1005.6 |
| 20260509004519 | 62 | 235 | 2.0 | 5.0 | 0.05 | 0.67 | 0.14 | 87 | 1005.9 |
| 20260509003520 | 63 | 266 | 3.0 | 8.0 | 0.05 | 0.67 | 0.14 | 87 | 1006.1 |
| 20260509002520 | 63 | 268 | 3.0 | 7.0 | 0.05 | 0.67 | 0.14 | 88 | 1006.4 |
| 20260509001602 | 65 | 275 | 3.0 | 6.0 | 0.05 | 0.67 | 0.14 | 84 | 1006.7 |
| 20260509000519 | 67 | 254 | 2.0 | 6.0 | 0.00 | 0.61 | 0.09 | 78 | 1006.5 |
| 20260508235518 | 66 | 226 | 2.0 | 5.0 | 0.00 | 0.61 | 0.09 | 80 | 1006.7 |
| 20260508234517 | 65 | 254 | 3.0 | 8.0 | 0.00 | 0.61 | 0.09 | 82 | 1006.9 |
| 20260508233520 | 65 | 263 | 3.0 | 7.0 | 0.00 | 0.61 | 0.09 | 83 | 1007.1 |
| 20260508232519 | 65 | 273 | 3.0 | 7.0 | 0.00 | 0.61 | 0.09 | 84 | 1007.0 |
| 20260508231519 | 64 | 255 | 2.0 | 5.0 | 0.00 | 0.61 | 0.09 | 87 | 1007.1 |
| 20260508230518 | 63 | 252 | 3.0 | 6.0 | 0.02 | 0.61 | 0.09 | 89 | 1007.2 |
| 20260508225518 | 62 | 256 | 2.0 | 6.0 | 0.03 | 0.61 | 0.09 | 90 | 1007.3 |
| 20260508224519 | 61 | 247 | 1.0 | 3.0 | 0.03 | 0.61 | 0.09 | 91 | 1007.4 |
| 20260508223540 | 60 | 249 | 2.0 | 5.0 | 0.06 | 0.61 | 0.09 | 91 | 1007.5 |
| 20260508222519 | 60 | 247 | 3.0 | 5.0 | 0.06 | 0.61 | 0.09 | 91 | 1007.6 |
| 20260508221518 | 61 | 255 | 4.0 | 10.0 | 0.06 | 0.61 | 0.09 | 91 | 1007.8 |
| 20260508220539 | 61 | 233 | 2.0 | 6.0 | 0.05 | 0.60 | 0.07 | 91 | 1007.6 |
| 20260508215539 | 62 | 256 | 2.0 | 6.0 | 0.04 | 0.59 | 0.06 | 90 | 1007.5 |
| 20260508214540 | 63 | 245 | 3.0 | 6.0 | 0.04 | 0.59 | 0.06 | 92 | 1007.7 |
| 20260508213519 | 63 | 301 | 2.0 | 5.0 | 0.00 | 0.55 | 0.02 | 94 | 1007.5 |
| 20260508212516 | 62 | 287 | 2.0 | 4.0 | 0.00 | 0.55 | 0.02 | 95 | 1007.6 |
| 20260508211516 | 61 | 302 | 2.0 | 4.0 | 0.00 | 0.55 | 0.02 | 95 | 1007.6 |
| 20260508210541 | 61 | 294 | 2.0 | 3.0 | 0.00 | 0.55 | 0.02 | 95 | 1007.6 |
| 20260508205522 | 61 | 314 | 3.0 | 4.0 | 0.00 | 0.55 | 0.02 | 96 | 1007.6 |
| 20260508204522 | 60 | 299 | 3.0 | 5.0 | 0.00 | 0.55 | 0.02 | 96 | 1007.6 |
| 20260508203543 | 60 | 304 | 2.0 | 4.0 | 0.00 | 0.55 | 0.02 | 96 | 1007.5 |
| 20260508202521 | 60 | 294 | 0.0 | 2.0 | 0.00 | 0.55 | 0.02 | 96 | 1007.5 |
| 20260508201522 | 59 | 301 | 2.0 | 5.0 | 0.00 | 0.55 | 0.02 | 96 | 1007.5 |
| 20260508200522 | 57 | 27 | 0.0 | 1.0 | 0.00 | 0.55 | 0.02 | 96 | 1007.3 |
| 20260508195542 | 56 | 215 | 0.0 | 0.0 | 0.00 | 0.55 | 0.02 | 96 | 1007.3 |
| 20260508194523 | 56 | 0.0 | 0.0 | 0.00 | 0.55 | 0.02 | 95 | 1007.2 | |
| 20260508193522 | 56 | 229 | 0.0 | 1.0 | 0.00 | 0.55 | 0.02 | 95 | 1007.1 |
| 20260508192522 | 57 | 0.0 | 0.0 | 0.00 | 0.55 | 0.02 | 95 | 1007.1 | |
| 20260508191522 | 57 | 0.0 | 0.0 | 0.00 | 0.55 | 0.02 | 95 | 1007.1 | |
| 20260508190522 | 57 | 243 | 0.0 | 2.0 | 0.00 | 0.55 | 0.02 | 95 | 1007.1 |
| 20260508185523 | 58 | 230 | 1.0 | 1.0 | 0.00 | 0.55 | 0.02 | 95 | 1007.0 |
| 20260508184522 | 58 | 0.0 | 0.0 | 0.02 | 0.55 | 0.02 | 95 | 1006.9 | |
| 20260508183523 | 59 | 271 | 0.0 | 1.0 | 0.02 | 0.55 | 0.02 | 95 | 1006.9 |
| 20260508182523 | 59 | 286 | 0.0 | 1.0 | 0.02 | 0.55 | 0.02 | 95 | 1006.9 |
| 20260508181523 | 60 | 273 | 1.0 | 2.0 | 0.02 | 0.55 | 0.02 | 95 | 1006.9 |
| 20260508180604 | 60 | 284 | 1.0 | 4.0 | 0.02 | 0.55 | 0.02 | 95 | 1006.9 |
| 20260508175543 | 60 | 231 | 0.0 | 1.0 | 0.02 | 0.55 | 0.02 | 95 | 1006.9 |
| 20260508174603 | 60 | 0.0 | 0.0 | 0.00 | 0.53 | 0.01 | 95 | 1006.8 | |
| 20260508173523 | 60 | 273 | 0.0 | 1.0 | 0.00 | 0.53 | 0.01 | 95 | 1006.8 |
| 20260508172524 | 60 | 260 | 0.0 | 2.0 | 0.00 | 0.53 | 0.01 | 95 | 1006.8 |
| 20260508171523 | 60 | 262 | 0.0 | 1.0 | 0.00 | 0.53 | 0.01 | 95 | 1006.8 |
| 20260508170544 | 60 | 0.0 | 0.0 | 0.00 | 0.53 | 0.01 | 95 | 1006.8 | |
| 20260508165524 | 60 | 283 | 1.0 | 3.0 | 0.00 | 0.53 | 0.01 | 95 | 1006.7 |
| 20260508164524 | 60 | 286 | 1.0 | 2.0 | 0.00 | 0.53 | 0.01 | 95 | 1006.7 |
| 20260508163545 | 59 | 318 | 1.0 | 3.0 | 0.00 | 0.53 | 0.01 | 95 | 1006.7 |
| 20260508162524 | 59 | 288 | 0.0 | 2.0 | 0.00 | 0.53 | 0.01 | 95 | 1006.8 |
| 20260508161524 | 59 | 300 | 0.0 | 1.0 | 0.00 | 0.53 | 0.01 | 95 | 1006.9 |
| 20260508160524 | 58 | 308 | 0.0 | 2.0 | 0.00 | 0.53 | 0.01 | 95 | 1007.0 |
| 20260508155525 | 58 | 264 | 0.0 | 1.0 | 0.00 | 0.53 | 0.01 | 95 | 1007.0 |
| 20260508154526 | 58 | 0.0 | 0.0 | 0.00 | 0.53 | 0.01 | 95 | 1007.0 | |
| 20260508153525 | 58 | 0.0 | 0.0 | 0.00 | 0.53 | 0.01 | 95 | 1007.1 | |
| 20260508152525 | 58 | 0.0 | 0.0 | 0.00 | 0.53 | 0.01 | 94 | 1007.0 | |
| 20260508151525 | 58 | 0.0 | 0.0 | 0.00 | 0.53 | 0.01 | 94 | 1007.1 | |
| 20260508150525 | 59 | 279 | 0.0 | 1.0 | 0.00 | 0.53 | 0.01 | 94 | 1007.2 |
| 20260508145525 | 59 | 280 | 0.0 | 2.0 | 0.00 | 0.53 | 0.01 | 94 | 1007.4 |
| 20260508144525 | 59 | 260 | 1.0 | 3.0 | 0.00 | 0.53 | 0.01 | 94 | 1007.5 |
| 20260508143527 | 58 | 248 | 1.0 | 5.0 | 0.00 | 0.53 | 0.01 | 94 | 1007.5 |
| 20260508142525 | 58 | 270 | 0.0 | 1.0 | 0.00 | 0.53 | 0.01 | 94 | 1007.5 |
| 20260508141526 | 58 | 210 | 0.0 | 2.0 | 0.00 | 0.53 | 0.01 | 94 | 1007.6 |
| 20260508140526 | 59 | 214 | 0.0 | 2.0 | 0.00 | 0.53 | 0.01 | 94 | 1007.8 |
| 20260508135526 | 59 | 241 | 1.0 | 2.0 | 0.00 | 0.53 | 0.01 | 94 | 1007.9 |
| 20260508134526 | 59 | 246 | 1.0 | 1.0 | 0.00 | 0.53 | 0.01 | 94 | 1007.8 |
| 20260508133547 | 59 | 248 | 0.0 | 2.0 | 0.00 | 0.53 | 0.01 | 94 | 1007.9 |
| 20260508132527 | 59 | 232 | 1.0 | 3.0 | 0.00 | 0.53 | 0.01 | 94 | 1007.9 |
| 20260508131526 | 59 | 226 | 0.0 | 1.0 | 0.00 | 0.53 | 0.01 | 94 | 1007.8 |
| 20260508130527 | 59 | 247 | 1.0 | 2.0 | 0.00 | 0.53 | 0.01 | 94 | 1007.8 |
| 20260508125547 | 59 | 356 | 0.0 | 0.0 | 0.01 | 0.53 | 0.01 | 93 | 1007.7 |
| 20260508124628 | 59 | 275 | 1.0 | 2.0 | 0.02 | 0.53 | 0.01 | 93 | 1007.9 |
| 20260508123526 | 59 | 233 | 1.0 | 2.0 | 0.02 | 0.53 | 0.01 | 93 | 1008.0 |
| 20260508122527 | 59 | 224 | 1.0 | 2.0 | 0.02 | 0.53 | 0.01 | 93 | 1008.3 |
| 20260508121527 | 59 | 286 | 2.0 | 4.0 | 0.03 | 0.53 | 0.01 | 93 | 1008.5 |
| 20260508120523 | 60 | 252 | 3.0 | 6.0 | 0.07 | 0.53 | 0.01 | 93 | 1008.3 |
| 20260508115517 | 60 | 262 | 3.0 | 7.0 | 0.10 | 0.53 | 0.53 | 93 | 1008.6 |
| 20260508114529 | 60 | 260 | 2.0 | 4.0 | 0.09 | 0.51 | 0.51 | 93 | 1008.6 |
| 20260508113522 | 61 | 274 | 2.0 | 5.0 | 0.09 | 0.51 | 0.51 | 93 | 1008.5 |
| 20260508112524 | 61 | 269 | 3.0 | 6.0 | 0.09 | 0.51 | 0.51 | 93 | 1008.5 |
| 20260508111523 | 63 | 252 | 4.0 | 8.0 | 0.08 | 0.50 | 0.50 | 92 | 1008.7 |
| 20260508110523 | 64 | 238 | 3.0 | 7.0 | 0.05 | 0.46 | 0.46 | 92 | 1008.4 |
| 20260508105529 | 64 | 265 | 1.0 | 2.0 | 0.01 | 0.42 | 0.42 | 92 | 1008.0 |
| 20260508104528 | 64 | 303 | 1.0 | 2.0 | 0.00 | 0.42 | 0.42 | 92 | 1008.2 |
| 20260508103530 | 64 | 349 | 1.0 | 3.0 | 0.00 | 0.42 | 0.42 | 92 | 1008.2 |
| 20260508102528 | 64 | 357 | 1.0 | 2.0 | 0.02 | 0.42 | 0.42 | 92 | 1008.4 |
| 20260508101528 | 63 | 305 | 0.0 | 2.0 | 0.05 | 0.42 | 0.42 | 92 | 1008.5 |
| 20260508100549 | 63 | 294 | 0.0 | 1.0 | 0.06 | 0.42 | 0.42 | 92 | 1008.5 |
| 20260508095530 | 63 | 288 | 0.0 | 1.0 | 0.07 | 0.42 | 0.42 | 91 | 1008.7 |
| 20260508094529 | 64 | 312 | 0.0 | 1.0 | 0.09 | 0.42 | 0.42 | 91 | 1008.9 |
| 20260508093530 | 64 | 6 | 2.0 | 3.0 | 0.10 | 0.42 | 0.42 | 91 | 1008.8 |
| 20260508092529 | 64 | 18 | 1.0 | 3.0 | 0.10 | 0.40 | 0.40 | 91 | 1008.9 |
| 20260508091549 | 64 | 10 | 2.0 | 3.0 | 0.11 | 0.37 | 0.37 | 91 | 1009.1 |
| 20260508090530 | 64 | 350 | 1.0 | 2.0 | 0.14 | 0.36 | 0.36 | 91 | 1009.2 |
| 20260508085549 | 64 | 320 | 0.0 | 1.0 | 0.14 | 0.35 | 0.35 | 91 | 1009.3 |
| 20260508084550 | 64 | 340 | 1.0 | 3.0 | 0.14 | 0.33 | 0.33 | 90 | 1009.4 |
| 20260508083530 | 64 | 356 | 2.0 | 3.0 | 0.16 | 0.31 | 0.31 | 90 | 1009.5 |
| 20260508082529 | 64 | 354 | 2.0 | 4.0 | 0.16 | 0.30 | 0.30 | 90 | 1009.5 |
| 20260508081539 | 64 | 356 | 3.0 | 7.0 | 0.14 | 0.26 | 0.26 | 90 | 1009.5 |
| 20260508080521 | 64 | 349 | 4.0 | 7.0 | 0.10 | 0.22 | 0.22 | 90 | 1009.5 |
| 20260508075529 | 64 | 7 | 2.0 | 5.0 | 0.10 | 0.21 | 0.21 | 90 | 1009.6 |
| 20260508074519 | 64 | 344 | 3.0 | 6.0 | 0.08 | 0.19 | 0.19 | 90 | 1009.8 |
| 20260508073519 | 64 | 359 | 3.0 | 8.0 | 0.04 | 0.15 | 0.15 | 90 | 1009.5 |
| 20260508072520 | 64 | 359 | 3.0 | 7.0 | 0.02 | 0.13 | 0.13 | 90 | 1009.9 |
| 20260508071520 | 64 | 352 | 4.0 | 9.0 | 0.02 | 0.12 | 0.12 | 90 | 1010.0 |
| 20260508070541 | 64 | 2 | 3.0 | 7.0 | 0.02 | 0.11 | 0.11 | 90 | 1009.9 |
| 20260508065520 | 64 | 9 | 3.0 | 6.0 | 0.03 | 0.11 | 0.11 | 90 | 1010.2 |
| 20260508064520 | 64 | 355 | 3.0 | 7.0 | 0.04 | 0.11 | 0.11 | 90 | 1010.1 |
| 20260508063520 | 64 | 3 | 3.0 | 8.0 | 0.05 | 0.11 | 0.11 | 90 | 1010.0 |
| 20260508062521 | 64 | 355 | 3.0 | 5.0 | 0.08 | 0.11 | 0.11 | 90 | 1009.9 |
| 20260508061518 | 64 | 11 | 3.0 | 5.0 | 0.10 | 0.11 | 0.11 | 89 | 1010.0 |
| 20260508060517 | 65 | 351 | 2.0 | 4.0 | 0.10 | 0.10 | 0.10 | 89 | 1010.2 |
| 20260508055518 | 65 | 11 | 3.0 | 5.0 | 0.08 | 0.08 | 0.08 | 88 | 1010.0 |
| 20260508054521 | 65 | 5 | 3.0 | 5.0 | 0.07 | 0.07 | 0.07 | 87 | 1010.3 |
| 20260508053521 | 66 | 4 | 3.0 | 6.0 | 0.06 | 0.06 | 0.06 | 86 | 1010.5 |
| 20260508052520 | 66 | 14 | 3.0 | 7.0 | 0.03 | 0.03 | 0.03 | 84 | 1010.7 |
| 20260508051522 | 67 | 14 | 4.0 | 8.0 | 0.00 | 0.00 | 0.00 | 82 | 1011.0 |
| 20260508050518 | 67 | 15 | 2.0 | 4.0 | 0.00 | 0.00 | 0.00 | 81 | 1011.2 |
| 20260508045521 | 67 | 10 | 3.0 | 5.0 | 0.00 | 0.00 | 0.00 | 81 | 1011.3 |
| 20260508044612 | 67 | 24 | 1.0 | 5.0 | 0.00 | 0.00 | 0.00 | 80 | 1011.5 |
| 20260508043519 | 67 | 19 | 1.0 | 3.0 | 0.00 | 0.00 | 0.00 | 80 | 1011.7 |
| 20260508042521 | 67 | 4 | 2.0 | 6.0 | 0.00 | 0.00 | 0.00 | 80 | 1011.9 |
| 20260508041521 | 67 | 8 | 3.0 | 8.0 | 0.00 | 0.00 | 0.00 | 79 | 1011.7 |
| 20260508040522 | 67 | 6 | 2.0 | 7.0 | 0.00 | 0.00 | 0.00 | 79 | 1011.9 |
| 20260508035521 | 68 | 12 | 3.0 | 6.0 | 0.00 | 0.00 | 0.00 | 78 | 1012.1 |
| 20260508034522 | 68 | 9 | 3.0 | 6.0 | 0.00 | 0.00 | 0.00 | 78 | 1012.2 |